Skip Page Navigation
NASA JPL Caltech
NASA Logo - Jet Propulsion Laboratory + View the NASA Portal
+ Center for Near-Earth Object Studies
JPL Home Earth Solar System Stars & Galaxies Technology
JPL Solar System Dynamics
BODIES ORBITS EPHEMERIDES TOOLS PHYSICAL DATA DISCOVERY FAQ SITE MAP
JPL Small-Body Database Browser
Search: [ help ]  
29075 (1950 DA)
Classification: Apollo [NEO, PHA]          SPK-ID: 2029075
Ephemeris | Orbit Diagram | Orbital Elements | Mission Design | Physical Parameters | Discovery Circumstances | Close-Approach Data ]

[ hide orbit diagram ]

For accurate long-term ephemerides, please instead use our Horizons system.This orbit viewer was implemented using two-body methods, and hence should not be used for determining accurate long-term trajectories (over several years or decades) or planetary encounter circumstances.


[ revert to old Java-based viewer ]

Orbital Elements at Epoch 2459000.5 (2020-May-31.0) TDB
Reference: JPL 167 (heliocentric ecliptic J2000)
 Element Value Uncertainty (1-sigma)   Units 
e .5078265397284244 2.6786e-08  
a 1.698568963312518 1.1564e-09 au
q .8359905641834251 4.5907e-08 au
i 12.16749719356756 4.4413e-06 deg
node 356.6622234261113 7.3067e-06 deg
peri 224.6832948078031 8.5096e-06 deg
M 230.8829306228519 2.5705e-06 deg
tp 2459290.504250094931
(2021-Mar-17.00425009)
6.034e-06 TDB
period 808.5803878433819
2.21
8.2576e-07
2.261e-09
d
yr
n .4452247487231044 4.5469e-10 deg/d
Q 2.561147362441611 1.7437e-09 au

Additional Model Parameters
 Parameter Value Uncertainty (1-sigma) 
A2 [EST] -5.513042840612778E-15 1.287E-15
ALN [SET] 1. n/a
NK [SET] 0. n/a
NM [SET] 2. n/a
R0 [SET] 1. n/a
  Orbit Determination Parameters
   # obs. used (total)      630  
   # delay obs. used      8  
   # Doppler obs. used      4  
   data-arc span      25807 days (70.66 yr)  
   first obs. used      1950-02-23  
   last obs. used      2020-10-20  
   planetary ephem.      DE431  
   SB-pert. ephem.      SB431-N16  
   condition code      0  
   norm. resid. RMS      .50115  
   source      ORB  
   producer      Otto Matic  
   solution date      2020-Oct-21 07:43:33  

Additional Information
 Earth MOID = .0401055 au 
 Jupiter MOID = 2.48364 au 
 T_jup = 4.026 
[ show covariance matrix ]

Ephemeris | Orbit Diagram | Orbital Elements | Mission Design | Physical Parameters | Discovery Circumstances | Close-Approach Data ]

Physical Parameter Table
Parameter Symbol Value Units Sigma Reference Notes
absolute magnitude H 17.1   n/a MPO244437  
diameter diameter 2.000 km 0.200 urn:nasa:pds:neowise_diameters_albedos::2.0[neos] (http://adsabs.harvard.edu/abs/2011ApJ...743..156M)  
rotation period rot_per 2.1216 h n/a LCDB (Rev. 2019-August); Warner et al., 2009 Published Reference List:
[Pravec, P.; Wolf, M.; Sarounova, L. (2001) http://www.asu.cas.cz/~ppravec/neo.htm]
[Busch, M.W.; Giorgini, J.D.; Ostro, S.J.; Benner, L.A.M.; et al. (2007) Icarus 190, 608-621.]
geometric albedo albedo 0.070   0.020 urn:nasa:pds:neowise_diameters_albedos::2.0[neos] (http://adsabs.harvard.edu/abs/2011ApJ...743..156M)  

29075 (1950 DA)          Discovered 1950-Feb-22 by Wirtanen, C. A. at Mt. Hamilton
Reference: 20011002/Numbers.arcLast Updated: 2004-04-19

